SL-14 R/B

Satellite information

Favourite Embed

Satellite Type and Status

ROCKET BODYIN ORBIT

Key statistics

Satellite SL-14 R/B at a glance.

Uptime

15893

Days in orbit

Revolutions

≈ 14.9

Per day

Orbit

LEO

Low Earth Orbit

Inclination

82.5

Latest

Satellite identification and parameters

Extended collection of information and parameters for SL-14 R/B.

Object identification

Identified? True

Debris? False

Object name: SL-14 R/B

International designator: 1982-059B

Object number (NORAD): 13272

Object ID (CCSDS): 13272

Country: COMMONWEALTH OF INDEPENDENT STATES (CIS)

Current information (Y/N): Y

RCS size: LARGE

Orbital parameters

Period: 96.836 minutes

Inclination: 82.5098 deg

SMA: 6985.28 km

Apoapsis: 618.756 km

Periapsis: 595.534 km

RAAN: 102.325 deg

Eccentricy: 0.00166221

Argument of periapsis: 309.9599 deg

Mean anomaly: 50.0157 deg

Mean motion: 14.87054862 rev/day

Mean motion (dot): 0.00000829 rev/day2

B* drag term: 0.000089661983 1/REarth

Two-line elements (TLE)

Creation date: Dec. 14, 2025, 3:07 a.m.

Reference frame: TEME

Reference center: EARTH

Epoch: Dec. 13, 2025, 1:57 p.m. UTC

TLE line 0: 0 SL-14 R/B

TLE line 1: 1 13272U 82059B 25347.58172499 .00000829 00000-0 89662-4 0 9999

TLE line 2: 2 13272 82.5098 102.3250 0016622 309.9599 50.0157 14.87054862331148

Live tracking on map

Real-time ground track for satellite SL-14 R/B.

In-orbit conjunctions

A list of the most updated potential collisions computed for object SL-14 R/B.

Target Orbit TCA Probability of collision Miss distance Type
CZ-6A DEB SSO 2025-04-05 08:48:03 0.0007189755 321.0 (m) DEBRIS
FENGYUN 1C DEB SSO 2024-11-11 05:07:35 0.001548813 168.0 (m) DEBRIS

Associated space launch

Tselina-D satellites provided detailed observation of radio sources detected by the smaller Tselina-O satellites as part of the Tselina ELINT system.

SL-14 R/B was lifted into orbit during the mission ‘Tsiklon-3 | Tselina-D 36’, on board a Tsiklon-3 space rocket.

The launch took place on June 10, 1982, 5:37 p.m. from 32/1.

For more information about the launch, click the button.

Launch to space Tsiklon-3 | Tselina-D 36
Tsiklon-3 | Tselina-D 36

Agency: N/A

Status: Launch Successful

Launch date: June 10, 1982, 5:37 p.m. UTC

Rocket: Tsiklon-3

Launch pad: 32/1

Location: Plesetsk Cosmodrome, Russian Federation

...

Latest news about this satellite

There are no fresh news available about this satellite. Check back as we update our databases every day.


Newsletter sign-up

Weekly statistics, charts and insights to help you stay on top of the space industry.